When you browse on this site, cookies collect data to enhance your experience and personalize the content and advertising you see.
Visit our Privacy Policy to learn more. By continuing to use the site, you agree to this use of cookies and data.
  • In Hungary
  • List of Countries
  • For 7 days
  • Water Temperature
  • Weather Map
  • News
  • Weather Widgets
  • user-avatar
    Login

    Hourly Weather Malovydne

    Today, 21 November, Thursday

    Time Temperature Precipitation Wind Pressure Humidity
    00:00 +6°C° 0 mm 4 mps 746 mmHg 85%
    01:00 +6°C° 0 mm 4 mps 746 mmHg 85%
    02:00 +5°C° 0 mm 5 mps 746 mmHg 84%
    03:00 +5°C° 0 mm 5 mps 746 mmHg 82%
    04:00 +5°C° 0 mm 5 mps 747 mmHg 81%
    05:00 +4°C° 0 mm 6 mps 747 mmHg 79%
    06:00 +4°C° 0 mm 6 mps 747 mmHg 77%
    07:00 +4°C° 0 mm 6 mps 747 mmHg 74%
    08:00 +4°C° 0 mm 7 mps 747 mmHg 74%
    09:00 +4°C° 0 mm 7 mps 747 mmHg 69%
    10:00 +4°C° 0 mm 7 mps 748 mmHg 65%
    11:00 +4°C° 0 mm 7 mps 748 mmHg 61%
    12:00 +4°C° 0 mm 8 mps 748 mmHg 59%
    13:00 +4°C° 0 mm 8 mps 747 mmHg 58%
    14:00 +2°C° 0 mm 9 mps 747 mmHg 57%
    15:00 +1°C° 0 mm 8 mps 747 mmHg 59%
    16:00 0°C° 0 mm 8 mps 747 mmHg 61%
    17:00 -1°C° 0 mm 8 mps 747 mmHg 64%
    18:00 -2°C° 0 mm 8 mps 747 mmHg 64%
    19:00 -2°C° 0 mm 8 mps 747 mmHg 64%
    20:00 -3°C° 0 mm 7 mps 747 mmHg 64%
    21:00 -3°C° 0 mm 7 mps 747 mmHg 65%
    22:00 -3°C° 0 mm 7 mps 747 mmHg 66%
    23:00 -4°C° 0 mm 7 mps 747 mmHg 67%

    Tomorrow, 22 November, Friday

    Time Temperature Precipitation Wind Pressure Humidity
    00:00 -4°C° 0 mm 7 mps 747 mmHg 69%
    01:00 -4°C° 0 mm 7 mps 746 mmHg 71%
    02:00 -4°C° 0 mm 7 mps 746 mmHg 73%
    03:00 -4°C° 0 mm 7 mps 746 mmHg 74%
    04:00 -4°C° 0 mm 6 mps 746 mmHg 75%
    05:00 -5°C° 0 mm 6 mps 745 mmHg 76%
    06:00 -4°C° 0 mm 6 mps 745 mmHg 76%
    07:00 -4°C° 0 mm 5 mps 745 mmHg 75%
    08:00 -2°C° 0 mm 5 mps 745 mmHg 75%
    09:00 0°C° 0 mm 5 mps 745 mmHg 71%
    10:00 +2°C° 0 mm 5 mps 745 mmHg 66%
    11:00 +5°C° 0 mm 5 mps 745 mmHg 62%
    12:00 +5°C° 0 mm 5 mps 745 mmHg 62%
    13:00 +5°C° 0 mm 5 mps 745 mmHg 62%
    14:00 +6°C° 0 mm 5 mps 745 mmHg 62%
    15:00 +3°C° 0 mm 5 mps 745 mmHg 66%
    16:00 +2°C° 0 mm 5 mps 745 mmHg 71%
    17:00 +1°C° 0 mm 5 mps 745 mmHg 75%
    18:00 +1°C° 0 mm 5 mps 745 mmHg 76%
    19:00 +1°C° 0 mm 5 mps 745 mmHg 77%
    20:00 0°C° 0 mm 5 mps 745 mmHg 78%
    21:00 0°C° 0 mm 5 mps 745 mmHg 79%
    22:00 0°C° 0 mm 4 mps 745 mmHg 80%
    23:00 0°C° 0 mm 4 mps 745 mmHg 81%

    Day after tomorrow, 23 November, Saturday

    Time Temperature Precipitation Wind Pressure Humidity
    00:00 0°C° 0 mm 4 mps 745 mmHg 82%
    01:00 -1°C° 0 mm 4 mps 745 mmHg 83%
    02:00 -1°C° 0 mm 4 mps 745 mmHg 83%
    03:00 -1°C° 0 mm 4 mps 745 mmHg 83%
    04:00 -1°C° 0 mm 4 mps 745 mmHg 83%
    05:00 -1°C° 0 mm 4 mps 744 mmHg 82%
    06:00 0°C° 0 mm 4 mps 745 mmHg 80%
    07:00 0°C° 0 mm 4 mps 745 mmHg 78%
    08:00 +2°C° 0 mm 3 mps 745 mmHg 76%
    09:00 +3°C° 0 mm 3 mps 745 mmHg 71%
    10:00 +5°C° 0 mm 3 mps 745 mmHg 67%
    11:00 +7°C° 0 mm 3 mps 745 mmHg 62%
    12:00 +7°C° 0 mm 3 mps 745 mmHg 61%
    13:00 +7°C° 0 mm 3 mps 745 mmHg 61%
    14:00 +8°C° 0 mm 3 mps 745 mmHg 60%
    15:00 +5°C° 0 mm 3 mps 745 mmHg 62%
    16:00 +4°C° 0 mm 3 mps 744 mmHg 65%
    17:00 +3°C° 0 mm 3 mps 744 mmHg 67%
    18:00 +4°C° 0 mm 2 mps 744 mmHg 70%
    19:00 +4°C° 0 mm 2 mps 744 mmHg 72%
    20:00 +3°C° 0 mm 2 mps 744 mmHg 75%
    21:00 +4°C° 0 mm 2 mps 744 mmHg 76%
    22:00 +4°C° 0 mm 2 mps 744 mmHg 77%
    23:00 +4°C° 0 mm 2 mps 744 mmHg 77%

    24 November, Sunday

    Time Temperature Precipitation Wind Pressure Humidity
    00:00 +4°C° 0 mm 2 mps 744 mmHg 78%
    01:00 +4°C° 0 mm 2 mps 744 mmHg 79%
    02:00 +3°C° 0 mm 2 mps 744 mmHg 80%
    03:00 +3°C° 0 mm 2 mps 744 mmHg 80%
    04:00 +3°C° 0 mm 2 mps 744 mmHg 80%
    05:00 +3°C° 0 mm 2 mps 744 mmHg 81%
    06:00 +4°C° 0 mm 2 mps 744 mmHg 78%
    07:00 +4°C° 0 mm 2 mps 744 mmHg 76%
    08:00 +5°C° 0 mm 2 mps 744 mmHg 74%
    09:00 +6°C° 0 mm 2 mps 744 mmHg 67%
    10:00 +8°C° 0 mm 2 mps 744 mmHg 61%
    11:00 +10°C° 0 mm 2 mps 744 mmHg 54%
    12:00 +10°C° 0 mm 2 mps 744 mmHg 54%
    13:00 +10°C° 0 mm 2 mps 744 mmHg 53%
    14:00 +10°C° 0 mm 3 mps 744 mmHg 53%
    15:00 +9°C° 0 mm 3 mps 744 mmHg 58%
    16:00 +8°C° 0 mm 3 mps 744 mmHg 64%
    17:00 +7°C° 0 mm 3 mps 744 mmHg 69%
    18:00 +5°C° 0 mm 3 mps 744 mmHg 70%
    19:00 +5°C° 0 mm 3 mps 744 mmHg 72%
    20:00 +6°C° 0 mm 2 mps 744 mmHg 73%
    21:00 +6°C° 0 mm 2 mps 744 mmHg 74%
    22:00 +6°C° 0 mm 2 mps 743 mmHg 76%
    23:00 +5°C° 0 mm 2 mps 743 mmHg 77%

    25 November, Monday

    Time Temperature Precipitation Wind Pressure Humidity
    00:00 +5°C° 0 mm 2 mps 743 mmHg 76%
    01:00 +6°C° 0 mm 2 mps 743 mmHg 74%
    02:00 +6°C° 0 mm 2 mps 743 mmHg 73%
    03:00 +6°C° 0 mm 2 mps 743 mmHg 72%
    04:00 +6°C° 0 mm 2 mps 743 mmHg 71%
    05:00 +6°C° 0 mm 2 mps 743 mmHg 70%
    06:00 +6°C° 0 mm 2 mps 743 mmHg 69%
    07:00 +7°C° 0 mm 2 mps 743 mmHg 68%
    08:00 +7°C° 0 mm 2 mps 743 mmHg 66%
    09:00 +8°C° 0 mm 2 mps 743 mmHg 63%
    10:00 +10°C° 0 mm 2 mps 743 mmHg 59%
    11:00 +12°C° 0 mm 2 mps 743 mmHg 56%
    12:00 +12°C° 0 mm 2 mps 742 mmHg 55%
    13:00 +12°C° 0 mm 2 mps 742 mmHg 55%
    14:00 +12°C° 0 mm 3 mps 742 mmHg 55%
    15:00 +10°C° 0 mm 3 mps 742 mmHg 62%
    16:00 +9°C° 0 mm 3 mps 742 mmHg 69%
    17:00 +7°C° 0 mm 3 mps 741 mmHg 76%
    18:00 +7°C° 0 mm 3 mps 741 mmHg 78%
    19:00 +7°C° 0 mm 3 mps 741 mmHg 80%
    20:00 +7°C° 0 mm 2 mps 741 mmHg 83%
    21:00 +7°C° 0 mm 2 mps 741 mmHg 83%
    22:00 +7°C° 0 mm 2 mps 741 mmHg 84%
    23:00 +8°C° 0 mm 1 mps 740 mmHg 84%

    26 November, Tuesday

    Time Temperature Precipitation Wind Pressure Humidity
    00:00 +7°C° 0 mm 2 mps 740 mmHg 84%
    01:00 +7°C° 0 mm 2 mps 740 mmHg 84%
    02:00 +7°C° 0 mm 2 mps 740 mmHg 83%
    03:00 +6°C° 0 mm 2 mps 739 mmHg 83%
    04:00 +6°C° 0 mm 2 mps 739 mmHg 82%
    05:00 +6°C° 0 mm 2 mps 739 mmHg 82%
    06:00 +7°C° 0 mm 2 mps 739 mmHg 79%
    07:00 +7°C° 0 mm 2 mps 739 mmHg 77%
    08:00 +7°C° 0 mm 2 mps 739 mmHg 75%
    09:00 +9°C° 0 mm 2 mps 739 mmHg 66%
    10:00 +12°C° 0 mm 2 mps 739 mmHg 58%
    11:00 +14°C° 0 mm 2 mps 739 mmHg 50%
    12:00 +14°C° 0 mm 2 mps 739 mmHg 49%
    13:00 +14°C° 0 mm 2 mps 739 mmHg 49%
    14:00 +14°C° 0 mm 2 mps 739 mmHg 49%
    15:00 +12°C° 0 mm 3 mps 739 mmHg 57%
    16:00 +10°C° 0 mm 3 mps 739 mmHg 65%
    17:00 +8°C° 0 mm 3 mps 739 mmHg 74%
    18:00 +8°C° 0 mm 2 mps 739 mmHg 74%
    19:00 +8°C° 0 mm 2 mps 739 mmHg 75%
    20:00 +7°C° 0 mm 2 mps 739 mmHg 76%
    21:00 +7°C° 0 mm 2 mps 739 mmHg 76%
    22:00 +7°C° 0 mm 2 mps 739 mmHg 76%
    23:00 +8°C° 0 mm 1 mps 739 mmHg 76%
    Show more